Location: Cactus School
(34.5700°N, 118.0931°W)
Time: 09:50:49
(UTC-07:00)

S-56A Canister/Altair - Pass Details

Date: 21 April 2024
Orbit: 638 x 2488 km, 38.9° (Epoch: 29 May)

Event Time Altitude Azimuth Distance (km) Brightness Sun altitude
Rises 23:18:25 0° 287° (WNW) 4,293 11.9 -38.2°
Reaches altitude 10° 23:21:06 10° 281° (W) 3,547 11.3 -38.4°
Enters shadow 23:27:33 40° 242° (WSW) 2,414 9.8 -39.0°
Maximum altitude 23:29:54 44° 213° (SSW) 2,411 - -39.3°
Drops below altitude 10° 23:42:11 10° 148° (SSE) 4,891 - -40.3°
Sets 23:46:38 0° 142° (SE) 6,042 - -40.6°
